[[{"header":{"parameterUnit":"m.s-1","parameterCategory":1,"la1":30.2991,"la2":30.254,"lo1":-89.0895,"lo2":-89.0444,"dy":0.0017,"dx":0.0017,"nx":28,"ny":28,"refTime":"2023-08-03T03:00:00:Z","depth":0,"parameterNumber":2,"parameterNumberName":"U-component_of_WINDS"},"data":[0,0,0,0,0,0,0,0,0,0,0,0,0,0,0,0,0,0,0,0,0,0,0,0,0,0,0,0,0,0,0,0,0,0,0,0,0,0,0,0,0,0,0,0,0,0,0,0,0,0,0,0,0,0,0,0,0,0,0.689,0.689,0,0.6897,0.6897,0.6897,0.6862,0.6861,0.686,0.6859,0.6866,0.6867,0.6868,0,0,0,0,0,0,0,0,0,0,0,0,0,0.6847,0.6848,0.689,0.689,0.689,0.6897,0.6897,0.6897,0.6862,0.686,0.6859,0.6858,0.6866,0.6867,0.6868,0,0,0,0,0,0,0,0,0,0,0,0,0,0.6861,0.6848,0.689,0.6874,0.6872,0.6897,0.6897,0.6897,0.6862,0.686,0.6859,0.6858,0.6865,0.6867,0.6868,0.691,0,0,0.6874,0.6874,0,0,0,0,0,0,0,0,0.686,0.6863,0.6876,0.6875,0.6873,0.6877,0.6884,0.6901,0.6862,0.6866,0.6859,0.6857,0.6871,0.6872,0.6877,0.691,0.691,0.6874,0.6875,0.6876,0.6876,0,0,0,0,0,0,0,0.6859,0.6862,0.6893,0.6876,0.6875,0.6866,0.6866,0.6887,0.6877,0.6865,0.6863,0.6864,0.687,0.6875,0.6876,0.691,0.6874,0.6875,0.6876,0.6877,0.6977,0.6978,0,0,0,0,0,0,0.6861,0.6862,0.6893,0.6893,0.6863,0.6868,0.6868,0.6877,0.6876,0.6875,0.6865,0.6862,0.6873,0.6875,0.6877,0.6924,0.6876,0.6877,0.6878,0.6975,0.6977,0.6979,0,0,0,0,0,0,0.686,0.6864,0.6892,0.6877,0.688,0.687,0.6881,0.6878,0.6883,0.6876,0.6874,0.6873,0.6872,0.6874,0.6901,0.6924,0.6878,0.688,0.6973,0.6976,0.6978,0.7019,0,0,0,0,0,0,0.6859,0.6864,0.6879,0.6877,0.6881,0.6917,0.6882,0.6879,0.6886,0.6882,0.6883,0.6881,0.6871,0.6899,0.6903,0.6925,0.6881,0.6971,0.6974,0.6977,0.7016,0.7023,0.7028,0,0,0,0,0,0.6857,0.6891,0.688,0.6884,0.69,0.6918,0.692,0.6907,0.6888,0.6904,0.6899,0.6881,0.6921,0.6902,0.6906,0.6929,0.697,0.6973,0.6977,0.7013,0.7021,0.7028,0,0,0,0,0,0,0.6896,0.6891,0.6878,0.6913,0.6916,0.6912,0.6932,0.6917,0.6926,0.6922,0.6906,0.6906,0.6936,0.6935,0.6915,0.6968,0.6942,0.6946,0.6968,0.6976,0.6982,0.6981,0.6882,0,0,0,0,0,0.6909,0.6924,0.6919,0.6949,0.6951,0.6941,0.6949,0.6938,0.6942,0.6943,0.6941,0.6945,0.6958,0.6967,0.6978,0.7016,0.7015,0.7033,0.704,0.7045,0.7049,0.7068,0.7076,0.6991,0.6991,0.699,0,0,0.6935,0.6934,0.6945,0.6957,0.6958,0.6975,0.6943,0.6962,0.6973,0.6946,0.6971,0.697,0.6973,0.7005,0.7019,0.7005,0.7072,0.705,0.7054,0.7055,0.7072,0.708,0.7087,0.6993,0.6993,0.6992,0,0,0.6991,0.6992,0.7017,0.7019,0.7021,0.7014,0.702,0.7019,0.7016,0.7041,0.7021,0.7034,0.7058,0.706,0.7065,0.7121,0.7104,0.7125,0.7159,0.7177,0.7184,0.7189,0.7208,0.7216,0.7129,0.713,0.713,0,0.7023,0.7047,0.7032,0.7051,0.7057,0.7032,0.7057,0.706,0.7067,0.7071,0.7056,0.7084,0.7084,0.7116,0.713,0.7134,0.714,0.7125,0.7184,0.7189,0.7195,0.7213,0.722,0.7132,0.7132,0.7131,0.7131,0,0.7086,0.7102,0.7122,0.7128,0.7136,0.7159,0.7147,0.7157,0.7145,0.714,0.7165,0.7165,0.7175,0.7182,0.7172,0.7212,0.7204,0.7187,0.7159,0.7205,0.7222,0.7229,0.7135,0.7135,0.7134,0.7133,0,0,0.7166,0.7163,0.7171,0.7173,0.7173,0.7186,0.7207,0.7217,0.7225,0.7231,0.7247,0.7267,0.7251,0.7256,0.7245,0.7262,0.7305,0.7242,0.7242,0.7253,0.7348,0.7361,0.7369,0.7294,0.7295,0.7296,0.7348,0,0.722,0.7255,0.7242,0.7278,0.7293,0.7269,0.7287,0.729,0.7285,0.7297,0.7292,0.7305,0.7283,0.7286,0.7301,0.7296,0.7323,0.7292,0.7309,0.731,0.7308,0.7378,0.7391,0.744,0.7354,0.7355,0.7356,0,0.7288,0.7295,0.7332,0.7329,0.7335,0.7351,0.7359,0.737,0.7372,0.7368,0.7373,0.7359,0.7379,0.7352,0.7379,0.7358,0.7364,0.7363,0.7365,0.7365,0.7335,0.7379,0.7455,0.7462,0.7366,0.7366,0.7365,0,0.7341,0.7361,0.7385,0.7388,0.7385,0.7397,0.7397,0.7397,0.7403,0.741,0.7414,0.7424,0.7429,0.7436,0.7425,0.7406,0.7453,0.7426,0.7449,0.745,0.746,0.7459,0.7537,0.7465,0.7465,0.7465,0.7465,0,0.7402,0.7426,0.7409,0.7424,0.7449,0.7434,0.746,0.7457,0.7457,0.7471,0.7452,0.7465,0.745,0.7462,0.7453,0.7476,0.7479,0.7475,0.7472,0.7476,0.7477,0.748,0.7476,0.7467,0.7466,0.7466,0.7466,0,0.7467,0.7456,0.7481,0.7477,0.7476,0.7495,0.7491,0.7504,0.7498,0.7516,0.7519,0.7509,0.7522,0.7511,0.7524,0.7518,0.7549,0.7542,0.7548,0.7546,0.757,0.7567,0.7651,0.7661,0.7584,0.7585,0.7586,0,0.7506,0.7524,0.752,0.7528,0.7528,0.7541,0.7547,0.7533,0.754,0.7543,0.7556,0.7567,0.7575,0.7597,0.7591,0.7601,0.7593,0.7622,0.7594,0.7598,0.7592,0.7591,0.7592,0.7627,0.7628,0.7629,0.7629,0,0.7577,0.757,0.758,0.7587,0.7595,0.7601,0.7604,0.7612,0.7597,0.7606,0.7619,0.7625,0.7637,0.7649,0.7656,0.7655,0.764,0.7638,0.7644,0.7648,0.765,0.7648,0.7562,0.7636,0.7636,0.7635,0.7635,0.7634,0.7629,0.7643,0.7642,0.7653,0.7654,0.7658,0.767,0.7665,0.7675,0.7684,0.7675,0.769,0.7691,0.7699,0.77,0.7712,0.77,0.7708,0.771,0.7713,0.7715,0.7649,0.7713,0.7713,0.7713,0.7713,0.7712,0,0.7697,0.7695,0.7706,0.7711,0.772,0.7704,0.7707,0.7715,0.7729,0.7731,0.7739,0.7753,0.7763,0.7758,0.7767,0.7777,0.777,0.778,0.7779,0.7779,0.7726,0.772,0.7785,0.7785,0.7785,0.7785,0.7785,0.7785,0.7734,0.7756,0.775,0.7772,0.777,0.7784,0.7787,0.7791,0.7792,0.7808,0.7816,0.7813,0.7811,0.782,0.7829,0.7827,0.7831,0.7843,0.7839,0.779,0.7782,0.7775,0.7769,0.7844,0.7844,0.789,0.789,0.789]},{"header":{"parameterUnit":"m.s-1","parameterCategory":1,"la1":30.2991,"la2":30.254,"lo1":-89.0895,"lo2":-89.0444,"dy":0.0017,"dx":0.0017,"nx":28,"ny":28,"refTime":"2023-08-03T03:00:00:Z","depth":0,"parameterNumber":3,"parameterNumberName":"V-component_of_WINDS"},"data":[0,0,0,0,0,0,0,0,0,0,0,0,0,0,0,0,0,0,0,0,0,0,0,0,0,0,0,0,0,0,0,0,0,0,0,0,0,0,0,0,0,0,0,0,0,0,0,0,0,0,0,0,0,0,0,0,0,0,-1.0376,-1.0375,0,-1.0341,-1.0341,-1.0341,-1.0338,-1.0338,-1.0339,-1.0339,-1.0303,-1.0302,-1.0301,0,0,0,0,0,0,0,0,0,0,0,0,0,-1.0438,-1.0437,-1.0376,-1.0375,-1.0375,-1.0342,-1.0341,-1.0341,-1.0338,-1.0339,-1.0339,-1.0339,-1.0304,-1.0302,-1.0301,0,0,0,0,0,0,0,0,0,0,0,0,0,-1.0408,-1.0436,-1.0376,-1.037,-1.0369,-1.0342,-1.0341,-1.034,-1.0338,-1.0339,-1.0339,-1.034,-1.0304,-1.0302,-1.03,-1.0277,0,0,-1.0294,-1.0293,0,0,0,0,0,0,0,0,-1.041,-1.0406,-1.0371,-1.037,-1.0369,-1.0345,-1.035,-1.0319,-1.0338,-1.035,-1.0339,-1.034,-1.0317,-1.0314,-1.0306,-1.0275,-1.0274,-1.0294,-1.0293,-1.0292,-1.0292,0,0,0,0,0,0,0,-1.0412,-1.0407,-1.0362,-1.037,-1.0369,-1.0368,-1.0365,-1.0344,-1.033,-1.0349,-1.0348,-1.0344,-1.0316,-1.0308,-1.0305,-1.0273,-1.0294,-1.0292,-1.0291,-1.0291,-1.0221,-1.0221,0,0,0,0,0,0,-1.0415,-1.0409,-1.0363,-1.0361,-1.0391,-1.0367,-1.0363,-1.0352,-1.033,-1.0328,-1.0344,-1.0344,-1.0311,-1.0307,-1.0304,-1.0274,-1.0292,-1.029,-1.0289,-1.0222,-1.0221,-1.022,0,0,0,0,0,0,-1.0416,-1.0411,-1.0365,-1.0385,-1.0379,-1.0365,-1.0353,-1.0351,-1.0343,-1.0327,-1.0324,-1.0338,-1.0311,-1.0307,-1.0284,-1.0273,-1.0289,-1.0288,-1.0223,-1.0222,-1.0221,-1.0216,0,0,0,0,0,0,-1.0418,-1.0412,-1.0403,-1.0385,-1.0378,-1.0345,-1.0352,-1.035,-1.0339,-1.034,-1.0321,-1.0318,-1.0311,-1.0287,-1.0282,-1.0271,-1.0286,-1.0224,-1.0222,-1.0221,-1.0217,-1.0215,-1.0213,0,0,0,0,0,-1.042,-1.0402,-1.0402,-1.0397,-1.0366,-1.0345,-1.0341,-1.0333,-1.0339,-1.0329,-1.0319,-1.0319,-1.0275,-1.0284,-1.0279,-1.0267,-1.0224,-1.0223,-1.0221,-1.0218,-1.0215,-1.0213,0,0,0,0,0,0,-1.0419,-1.04,-1.0399,-1.0375,-1.0362,-1.0344,-1.0332,-1.0331,-1.0315,-1.0316,-1.0308,-1.0303,-1.0281,-1.0272,-1.0282,-1.0243,-1.025,-1.0248,-1.025,-1.0247,-1.0245,-1.0247,-1.0284,0,0,0,0,0,-1.0416,-1.04,-1.0384,-1.0364,-1.0358,-1.0346,-1.0336,-1.0332,-1.0317,-1.0311,-1.03,-1.0285,-1.0269,-1.0258,-1.0241,-1.0216,-1.0212,-1.0205,-1.0204,-1.0202,-1.0199,-1.0185,-1.0182,-1.0216,-1.0216,-1.0216,0,0,-1.0409,-1.0397,-1.0387,-1.0364,-1.0353,-1.0336,-1.0341,-1.0323,-1.0311,-1.0309,-1.0286,-1.0277,-1.0261,-1.0237,-1.0225,-1.0228,-1.0189,-1.02,-1.0199,-1.0197,-1.0183,-1.018,-1.0177,-1.0215,-1.0215,-1.0215,0,0,-1.0388,-1.0378,-1.036,-1.0349,-1.0332,-1.0325,-1.032,-1.0303,-1.0297,-1.0275,-1.0273,-1.0258,-1.0229,-1.0217,-1.0207,-1.0183,-1.0181,-1.0178,-1.0167,-1.0154,-1.0151,-1.0148,-1.0139,-1.0136,-1.0175,-1.0175,-1.0175,0,-1.0382,-1.0357,-1.0351,-1.0333,-1.0322,-1.032,-1.0302,-1.0291,-1.027,-1.0263,-1.0267,-1.0231,-1.0219,-1.0192,-1.0186,-1.0179,-1.0173,-1.0179,-1.0152,-1.0149,-1.0147,-1.0138,-1.0134,-1.0175,-1.0175,-1.0175,-1.0175,0,-1.035,-1.0333,-1.032,-1.03,-1.0288,-1.027,-1.0261,-1.025,-1.0247,-1.0239,-1.0216,-1.0202,-1.0183,-1.0176,-1.0173,-1.0149,-1.0151,-1.0154,-1.016,-1.0144,-1.0135,-1.0131,-1.0174,-1.0175,-1.0175,-1.0175,0,0,-1.0326,-1.0303,-1.0298,-1.0289,-1.0271,-1.0257,-1.0239,-1.0221,-1.0211,-1.0197,-1.0181,-1.0157,-1.0159,-1.0148,-1.0144,-1.0132,-1.0112,-1.0136,-1.0135,-1.0131,-1.0084,-1.0082,-1.0078,-1.0112,-1.0111,-1.0111,-1.0085,0,-1.0302,-1.027,-1.0264,-1.0236,-1.022,-1.0218,-1.0202,-1.0189,-1.0182,-1.0167,-1.0158,-1.0141,-1.0146,-1.0139,-1.0127,-1.0117,-1.0103,-1.0119,-1.0097,-1.0096,-1.01,-1.0073,-1.0071,-1.0047,-1.0082,-1.0081,-1.0081,0,-1.027,-1.0255,-1.0226,-1.021,-1.0203,-1.0189,-1.0171,-1.0157,-1.0142,-1.0138,-1.0126,-1.0123,-1.0104,-1.0112,-1.0086,-1.0097,-1.0088,-1.0081,-1.008,-1.0077,-1.0087,-1.0069,-1.004,-1.0036,-1.0076,-1.0076,-1.0076,0,-1.0255,-1.0228,-1.0206,-1.0199,-1.018,-1.017,-1.0161,-1.0147,-1.0136,-1.0121,-1.0114,-1.0097,-1.0087,-1.0074,-1.0066,-1.0073,-1.004,-1.0048,-1.0035,-1.0035,-1.0027,-1.0028,-0.9995,-1.0023,-1.0023,-1.0023,-1.0023,0,-1.0229,-1.0211,-1.0199,-1.0186,-1.0166,-1.0159,-1.0139,-1.013,-1.0118,-1.0103,-1.01,-1.0086,-1.0077,-1.0062,-1.0056,-1.0034,-1.003,-1.0026,-1.0024,-1.0025,-1.0026,-1.0018,-1.0019,-1.0022,-1.0022,-1.0023,-1.0023,0,-1.0208,-1.02,-1.0176,-1.016,-1.0156,-1.0141,-1.0128,-1.0114,-1.0107,-1.0088,-1.0083,-1.0072,-1.0053,-1.0045,-1.0022,-1.0018,-0.9994,-0.9994,-0.9999,-0.9998,-0.9985,-0.9986,-0.9946,-0.994,-0.9972,-0.9972,-0.9972,0,-1.0191,-1.0177,-1.016,-1.015,-1.0141,-1.0125,-1.0114,-1.0107,-1.0096,-1.0078,-1.0067,-1.0049,-1.0034,-1.0005,-0.9994,-0.9977,-0.9976,-0.9963,-0.9973,-0.9975,-0.9975,-0.9975,-0.9973,-0.9961,-0.996,-0.996,-0.996,0,-1.0162,-1.0159,-1.0143,-1.0127,-1.0114,-1.01,-1.0087,-1.0079,-1.007,-1.0057,-1.0039,-1.0027,-1.0004,-0.9986,-0.9968,-0.9959,-0.9958,-0.9957,-0.9953,-0.9954,-0.9957,-0.9954,-0.9993,-0.9958,-0.9958,-0.9958,-0.9958,-0.9958,-1.0142,-1.0129,-1.0115,-1.0098,-1.0088,-1.0075,-1.0062,-1.0053,-1.0038,-1.0019,-1.0016,-0.9996,-0.9982,-0.9957,-0.9948,-0.9932,-0.9935,-0.9929,-0.9928,-0.9926,-0.9925,-0.996,-0.9929,-0.9929,-0.9929,-0.9929,-0.9929,0,-1.0112,-1.0103,-1.0088,-1.0069,-1.0056,-1.0057,-1.0042,-1.003,-1.0013,-1.0,-0.9985,-0.9964,-0.9946,-0.9935,-0.9917,-0.9906,-0.9905,-0.9902,-0.9902,-0.99,-0.9924,-0.9929,-0.9903,-0.9903,-0.9903,-0.9903,-0.9903,-0.9903,-1.0095,-1.0073,-1.0069,-1.0042,-1.0033,-1.0013,-1.0005,-0.9993,-0.9983,-0.9959,-0.9945,-0.9937,-0.9925,-0.9906,-0.989,-0.9887,-0.988,-0.9876,-0.9873,-0.9896,-0.9898,-0.9901,-0.9905,-0.9875,-0.9875,-0.9851,-0.985,-0.985]}]]